TimeCST,TemperatureF,Dew PointF,Humidity,Sea Level PressureIn,VisibilityMPH,Wind Direction,Wind SpeedMPH,Gust SpeedMPH,PrecipitationIn,Events,Conditions,WindDirDegrees,DateUTC
12:15 AM,-9.4,-16.6,71,30.18,10.0,WNW,6.9,-,N/A,,Clear,290,2013-01-22 06:15:00
12:35 AM,-9.4,-18.4,65,30.18,10.0,WNW,8.1,-,N/A,,Clear,290,2013-01-22 06:35:00
12:55 AM,-9.4,-18.4,65,30.18,10.0,WNW,6.9,-,N/A,,Clear,290,2013-01-22 06:55:00
1:15 AM,-9.4,-18.4,65,30.18,10.0,WNW,5.8,-,N/A,,Clear,290,2013-01-22 07:15:00
1:35 AM,-9.4,-18.4,65,30.19,10.0,WNW,4.6,-,N/A,,Clear,300,2013-01-22 07:35:00
1:55 AM,-9.4,-16.6,71,30.20,10.0,WNW,4.6,-,N/A,,Clear,300,2013-01-22 07:55:00
2:15 AM,-9.4,-18.4,65,30.20,10.0,WNW,3.5,-,N/A,,Clear,290,2013-01-22 08:15:00
2:35 AM,-9.4,-18.4,65,30.21,10.0,WNW,6.9,-,N/A,,Clear,290,2013-01-22 08:35:00
2:55 AM,-9.4,-18.4,65,30.21,10.0,WNW,9.2,-,N/A,,Clear,290,2013-01-22 08:55:00
3:15 AM,-9.4,-16.6,71,30.21,10.0,WNW,9.2,-,N/A,,Scattered Clouds,290,2013-01-22 09:15:00
3:35 AM,-9.4,-18.4,65,30.21,10.0,WNW,6.9,-,N/A,,Scattered Clouds,290,2013-01-22 09:35:00
3:55 AM,-9.4,-16.6,71,30.22,10.0,WNW,5.8,-,N/A,,Clear,290,2013-01-22 09:55:00
4:15 AM,-9.4,-18.4,65,30.22,10.0,West,5.8,-,N/A,,Clear,280,2013-01-22 10:15:00
4:35 AM,-9.4,-18.4,65,30.22,10.0,WNW,3.5,-,N/A,,Clear,290,2013-01-22 10:35:00
4:55 AM,-9.4,-16.6,71,30.22,10.0,WNW,4.6,-,N/A,,Clear,290,2013-01-22 10:55:00
5:15 AM,-9.4,-18.4,65,30.22,10.0,WNW,4.6,-,N/A,,Clear,300,2013-01-22 11:15:00
5:35 AM,-11.2,-18.4,70,30.22,10.0,WNW,3.5,-,N/A,,Clear,300,2013-01-22 11:35:00
5:55 AM,-11.2,-16.6,77,30.22,10.0,WNW,4.6,-,N/A,,Clear,300,2013-01-22 11:55:00
6:15 AM,-11.2,-16.6,77,30.23,10.0,NW,4.6,-,N/A,,Clear,310,2013-01-22 12:15:00
6:35 AM,-11.2,-14.8,84,30.24,10.0,NW,3.5,-,N/A,,Clear,310,2013-01-22 12:35:00
6:55 AM,-11.2,-18.4,70,30.24,10.0,NW,4.6,-,N/A,,Clear,310,2013-01-22 12:55:00
7:15 AM,-11.2,-16.6,77,30.24,10.0,WNW,3.5,-,N/A,,Clear,300,2013-01-22 13:15:00
7:35 AM,-11.2,-14.8,84,30.25,10.0,WNW,5.8,-,N/A,,Clear,300,2013-01-22 13:35:00
7:55 AM,-9.4,-14.8,77,30.25,10.0,NW,5.8,-,N/A,,Clear,310,2013-01-22 13:55:00
8:15 AM,-9.4,-16.6,71,30.25,10.0,NW,6.9,-,N/A,,Clear,310,2013-01-22 14:15:00
8:35 AM,-9.4,-13.0,84,30.25,10.0,WNW,5.8,-,N/A,,Clear,300,2013-01-22 14:35:00
8:55 AM,-7.6,-14.8,71,30.25,10.0,WNW,6.9,-,N/A,,Clear,300,2013-01-22 14:55:00
9:15 AM,-7.6,-14.8,71,30.26,10.0,WNW,6.9,-,N/A,,Clear,300,2013-01-22 15:15:00
9:35 AM,-5.8,-14.8,65,30.26,10.0,NW,6.9,-,N/A,,Clear,310,2013-01-22 15:35:00
9:55 AM,-5.8,-11.2,77,30.26,10.0,NW,8.1,-,N/A,,Clear,310,2013-01-22 15:55:00
10:15 AM,-4.0,-14.8,60,30.26,10.0,WNW,6.9,-,N/A,,Clear,300,2013-01-22 16:15:00
10:35 AM,-2.2,-11.2,66,30.27,10.0,WNW,5.8,-,N/A,,Clear,290,2013-01-22 16:35:00
10:55 AM,-2.2,-13.0,60,30.27,10.0,NW,8.1,-,N/A,,Clear,320,2013-01-22 16:55:00
11:15 AM,-2.2,-14.8,55,30.26,10.0,WNW,9.2,-,N/A,,Clear,290,2013-01-22 17:15:00
11:35 AM,-0.4,-11.2,60,30.26,10.0,NNW,5.8,-,N/A,,Clear,330,2013-01-22 17:35:00
11:55 AM,-0.4,-11.2,60,30.27,10.0,WNW,6.9,-,N/A,,Clear,300,2013-01-22 17:55:00
12:15 PM,1.4,-14.8,47,30.26,10.0,WNW,6.9,-,N/A,,Clear,290,2013-01-22 18:15:00
12:35 PM,1.4,-14.8,47,30.25,10.0,WNW,6.9,-,N/A,,Clear,300,2013-01-22 18:35:00
12:55 PM,1.4,-14.8,47,30.24,10.0,NNW,8.1,-,N/A,,Clear,330,2013-01-22 18:55:00
1:15 PM,1.4,-14.8,47,30.23,10.0,NNW,9.2,-,N/A,,Clear,330,2013-01-22 19:15:00
1:35 PM,1.4,-14.8,47,30.23,10.0,NNW,12.7,-,N/A,,Clear,340,2013-01-22 19:35:00
1:55 PM,3.2,-14.8,43,30.24,10.0,WNW,6.9,-,N/A,,Clear,300,2013-01-22 19:55:00
2:15 PM,3.2,-14.8,43,30.24,10.0,NNW,5.8,-,N/A,,Clear,330,2013-01-22 20:15:00
2:35 PM,3.2,-14.8,43,30.24,10.0,NNW,8.1,-,N/A,,Clear,330,2013-01-22 20:35:00
2:55 PM,3.2,-16.6,39,30.24,10.0,West,4.6,-,N/A,,Clear,280,2013-01-22 20:55:00
3:15 PM,3.2,-16.6,39,30.25,10.0,NW,5.8,-,N/A,,Clear,320,2013-01-22 21:15:00
3:35 PM,3.2,-16.6,39,30.25,10.0,WNW,5.8,-,N/A,,Clear,300,2013-01-22 21:35:00
3:55 PM,3.2,-18.4,36,30.25,10.0,West,3.5,-,N/A,,Clear,280,2013-01-22 21:55:00
4:15 PM,3.2,-18.4,36,30.24,10.0,West,6.9,-,N/A,,Clear,270,2013-01-22 22:15:00
4:35 PM,3.2,-20.2,33,30.25,10.0,West,4.6,-,N/A,,Clear,270,2013-01-22 22:35:00
4:55 PM,1.4,-18.4,39,30.25,10.0,West,4.6,-,N/A,,Clear,260,2013-01-22 22:55:00
5:15 PM,1.4,-18.4,39,30.26,10.0,West,3.5,-,N/A,,Clear,260,2013-01-22 23:15:00
5:35 PM,1.4,-20.2,36,30.26,10.0,West,3.5,-,N/A,,Clear,270,2013-01-22 23:35:00
5:55 PM,1.4,-22.0,33,30.26,10.0,West,3.5,-,N/A,,Clear,270,2013-01-22 23:55:00
6:15 PM,1.4,-22.0,33,30.26,10.0,West,3.5,-,N/A,,Clear,260,2013-01-23 00:15:00
6:35 PM,1.4,-20.2,36,30.26,10.0,West,4.6,-,N/A,,Clear,270,2013-01-23 00:35:00
6:55 PM,1.4,-18.4,39,30.26,10.0,West,4.6,-,N/A,,Clear,270,2013-01-23 00:55:00
7:15 PM,1.4,-20.2,36,30.26,10.0,West,4.6,-,N/A,,Clear,280,2013-01-23 01:15:00
7:35 PM,1.4,-20.2,36,30.25,10.0,West,8.1,-,N/A,,Mostly Cloudy,280,2013-01-23 01:35:00
7:55 PM,1.4,-20.2,36,30.25,10.0,West,8.1,-,N/A,,Overcast,270,2013-01-23 01:55:00
8:15 PM,1.4,-20.2,36,30.25,10.0,WNW,3.5,-,N/A,,Mostly Cloudy,290,2013-01-23 02:15:00
8:35 PM,1.4,-18.4,39,30.25,10.0,West,4.6,-,N/A,,Clear,280,2013-01-23 02:35:00
8:55 PM,1.4,-20.2,36,30.24,10.0,West,6.9,-,N/A,,Clear,270,2013-01-23 02:55:00
9:15 PM,-0.4,-18.4,43,30.24,10.0,West,6.9,-,N/A,,Clear,270,2013-01-23 03:15:00
9:35 PM,-0.4,-18.4,43,30.24,10.0,West,4.6,-,N/A,,Clear,270,2013-01-23 03:35:00
9:55 PM,-0.4,-16.6,46,30.24,10.0,West,4.6,-,N/A,,Clear,270,2013-01-23 03:55:00
10:15 PM,-0.4,-18.4,43,30.24,10.0,WSW,3.5,-,N/A,,Partly Cloudy,250,2013-01-23 04:15:00
10:35 PM,-0.4,-14.8,51,30.23,10.0,West,4.6,-,N/A,,Partly Cloudy,260,2013-01-23 04:35:00
10:55 PM,-0.4,-18.4,43,30.24,10.0,West,4.6,-,N/A,,Partly Cloudy,260,2013-01-23 04:55:00
11:15 PM,-0.4,-14.8,51,30.24,10.0,West,4.6,-,N/A,,Scattered Clouds,260,2013-01-23 05:15:00
11:35 PM,-0.4,-18.4,43,30.23,10.0,Calm,Calm,-,N/A,,Mostly Cloudy,0,2013-01-23 05:35:00
11:55 PM,-0.4,-16.6,46,30.23,10.0,West,3.5,-,N/A,,Scattered Clouds,270,2013-01-23 05:55:00